Liberal, KS

12:53 PM CDT on July 22, 2017 (GMT -0500)
Liberal Municipal

Weather History for KLBL - November, 2013

Change the Weather History Date:

Saturday, November 9, 2013

  Actual Average Record
Temperature  
Mean Temperature 47 °F -  
Max Temperature 62 °F 59 °F 81 °F (1980)
Min Temperature 32 °F 33 °F 15 °F (2000)
Degree Days  
Heating Degree Days 18    
Moisture  
Dew Point 35 °F    
Average Humidity 60    
Maximum Humidity 81    
Minimum Humidity 37    
Precipitation  
Precipitation 0.00 in - - ()
Sea Level Pressure  
Sea Level Pressure 30.15 in    
Wind  
Wind Speed 9 mph (ENE)    
Max Wind Speed 16 mph    
Max Gust Speed 21 mph    
Visibility 10 miles    
Events      
Averages and records for this station are not official NWS values.
T = Trace of Precipitation, MM = Missing Value Source: NWS Daily Summary

Daily Weather History Graph

Daily Weather History Graph

Search for Another Location

Airport or City:

Trip Planner

Search our weather history database for the weather conditions in past years. The results will help you decide how hot, cold, wet, or windy it might be!

Date:

Astronomy

Nov. 09, 2013 Rise Set
Actual Time 7:16 AM CST 5:38 PM CST
Civil Twilight 6:49 AM CST 6:05 PM CST
Nautical Twilight 6:18 AM CST 6:36 PM CST
Astronomical Twilight 5:47 AM CST 7:07 PM CST
Moon 12:56 PM CST (11/9) No Moon Set
Length of Visible Light 11h 16m
Length of Day
10h 21m
Waxing Crescent, 44% of the Moon is Illuminated
Nov 9
Waxing Crescent
Nov 9
First Quarter
Nov 17
Full
Nov 25
Last Quarter
Dec 2
New

Hourly Weather History & Observations

Time (CST) Temp. Windchill Dew Point Humidity Pressure Visibility Wind Dir Wind Speed Gust Speed Precip Events Conditions
4:35 AM 35.6 °F 30.7 °F 28.4 °F 75% 29.97 in 10.0 mi NE 5.8 mph - N/A   Clear
4:55 AM 35.6 °F 30.7 °F 26.6 °F 70% 29.98 in 10.0 mi North 5.8 mph - N/A   Clear
5:15 AM 33.8 °F 27.0 °F 26.6 °F 75% 29.98 in 10.0 mi North 8.1 mph - N/A   Clear
5:35 AM 32.0 °F 26.4 °F 26.6 °F 80% 29.99 in 10.0 mi North 5.8 mph - N/A   Clear
5:55 AM 33.8 °F 27.0 °F 26.6 °F 75% 30.01 in 10.0 mi North 8.1 mph - N/A   Clear
6:15 AM 33.8 °F 27.0 °F 28.4 °F 81% 30.02 in 10.0 mi NNW 8.1 mph - N/A   Clear
6:35 AM 33.8 °F 26.4 °F 28.4 °F 81% 30.03 in 10.0 mi NNW 9.2 mph - N/A   Clear
6:55 AM 33.8 °F 26.4 °F 28.4 °F 81% 30.04 in 10.0 mi North 9.2 mph - N/A   Clear
7:15 AM 33.8 °F 26.4 °F 28.4 °F 81% 30.05 in 10.0 mi North 9.2 mph - N/A   Clear
7:35 AM 33.8 °F 27.0 °F 28.4 °F 81% 30.06 in 10.0 mi North 8.1 mph - N/A   Clear
7:55 AM 35.6 °F 29.9 °F 28.4 °F 75% 30.07 in 10.0 mi North 6.9 mph - N/A   Clear
8:15 AM 37.4 °F 29.8 °F 30.2 °F 75% 30.08 in 10.0 mi North 11.5 mph - N/A   Clear
10:55 AM 53.6 °F - 39.2 °F 58% 30.14 in 10.0 mi NE 16.1 mph - N/A   Clear
11:15 AM 55.4 °F - 39.2 °F 54% 30.14 in 10.0 mi NNE 16.1 mph 19.6 mph N/A   Clear
11:35 AM 57.2 °F - 39.2 °F 51% 30.14 in 10.0 mi NE 16.1 mph - N/A   Clear
11:55 AM 59.0 °F - 37.4 °F 45% 30.14 in 10.0 mi NE 16.1 mph 20.7 mph N/A   Clear
12:15 PM 60.8 °F - 37.4 °F 42% 30.14 in 10.0 mi NE 15.0 mph 20.7 mph N/A   Clear
12:35 PM 60.8 °F - 37.4 °F 42% 30.14 in 10.0 mi ENE 12.7 mph - N/A   Clear
12:55 PM 60.8 °F - 37.4 °F 42% 30.13 in 10.0 mi ENE 15.0 mph - N/A   Clear
1:15 PM 62.6 °F - 37.4 °F 39% 30.13 in 10.0 mi ENE 13.8 mph - N/A   Clear
1:35 PM 62.6 °F - 35.6 °F 37% 30.12 in 10.0 mi ENE 10.4 mph 19.6 mph N/A   Clear
1:55 PM 62.6 °F - 35.6 °F 37% 30.12 in 10.0 mi ENE 12.7 mph - N/A   Clear
2:15 PM 62.6 °F - 37.4 °F 39% 30.12 in 10.0 mi ENE 11.5 mph - N/A   Clear
2:35 PM 62.6 °F - 37.4 °F 39% 30.12 in 10.0 mi East 16.1 mph 19.6 mph N/A   Clear
2:55 PM 62.6 °F - 35.6 °F 37% 30.13 in 10.0 mi East 10.4 mph - N/A   Clear
3:15 PM 62.6 °F - 35.6 °F 37% 30.13 in 10.0 mi East 12.7 mph - N/A   Clear
3:35 PM 60.8 °F - 35.6 °F 39% 30.13 in 10.0 mi East 15.0 mph - N/A   Clear
3:55 PM 60.8 °F - 37.4 °F 42% 30.14 in 10.0 mi East 11.5 mph - N/A   Clear
4:15 PM 60.8 °F - 37.4 °F 42% 30.14 in 10.0 mi East 11.5 mph - N/A   Clear
4:35 PM 60.8 °F - 37.4 °F 42% 30.15 in 10.0 mi East 11.5 mph - N/A   Clear
5:15 PM 57.2 °F - 37.4 °F 48% 30.16 in 10.0 mi East 10.4 mph - N/A   Clear
5:35 PM 55.4 °F - 37.4 °F 51% 30.18 in 10.0 mi East 9.2 mph - N/A   Clear
5:55 PM 55.4 °F - 37.4 °F 51% 30.18 in 10.0 mi East 6.9 mph - N/A   Clear
6:15 PM 53.6 °F - 37.4 °F 54% 30.19 in 10.0 mi East 6.9 mph - N/A   Clear
6:35 PM 53.6 °F - 39.2 °F 58% 30.20 in 10.0 mi East 6.9 mph - N/A   Clear
6:55 PM 53.6 °F - 37.4 °F 54% 30.20 in 10.0 mi East 6.9 mph - N/A   Clear
7:15 PM 53.6 °F - 37.4 °F 54% 30.21 in 10.0 mi East 6.9 mph - N/A   Clear
7:35 PM 51.8 °F - 37.4 °F 58% 30.22 in 10.0 mi East 5.8 mph - N/A   Clear
7:55 PM 50.0 °F - 37.4 °F 62% 30.23 in 10.0 mi East 8.1 mph - N/A   Clear
8:15 PM 50.0 °F - 39.2 °F 66% 30.23 in 10.0 mi East 8.1 mph - N/A   Clear
8:35 PM 50.0 °F - 39.2 °F 66% 30.24 in 10.0 mi East 9.2 mph - N/A   Clear
8:55 PM 48.2 °F - 39.2 °F 71% 30.25 in 10.0 mi East 8.1 mph - N/A   Clear
9:15 PM 48.2 °F - 39.2 °F 71% 30.25 in 10.0 mi East 6.9 mph - N/A   Clear
9:35 PM 48.2 °F - 39.2 °F 71% 30.26 in 10.0 mi East 5.8 mph - N/A   Clear
9:55 PM 46.4 °F 42.9 °F 39.2 °F 76% 30.27 in 10.0 mi East 6.9 mph - N/A   Clear
10:15 PM 46.4 °F 44.3 °F 37.4 °F 71% 30.27 in 10.0 mi East 4.6 mph - N/A   Clear
10:35 PM 46.4 °F 45.2 °F 37.4 °F 71% 30.27 in 10.0 mi East 3.5 mph - N/A   Clear
10:55 PM 46.4 °F 45.2 °F 37.4 °F 71% 30.28 in 10.0 mi East 3.5 mph - N/A   Clear
11:15 PM 44.6 °F 42.2 °F 37.4 °F 76% 30.28 in 10.0 mi East 4.6 mph - N/A   Clear
11:35 PM 44.6 °F 42.2 °F 37.4 °F 76% 30.28 in 10.0 mi East 4.6 mph - N/A   Clear
11:55 PM 44.6 °F 42.2 °F 37.4 °F 76% 30.28 in 10.0 mi East 4.6 mph - N/A   Clear